When you browse on this site, cookies collect data to enhance your experience and personalize the content and advertising you see.
Visit our Privacy Policy to learn more. By continuing to use the site, you agree to this use of cookies and data.
  • In Sweden
  • List of Countries
  • For 7 days
  • Water Temperature
  • Weather Map
  • Weather Widgets
  • user-avatar
    Login

    Hourly Weather Konstantyna

    Today, 18 September, Wednesday

    Time Temperature Precipitation Wind Pressure Humidity
    00:00 +26°C° 0 mm 3 mps 712 mmHg 57%
    01:00 +25°C° 0 mm 2 mps 711 mmHg 56%
    02:00 +25°C° 0 mm 2 mps 710 mmHg 55%
    03:00 +25°C° 0 mm 1 mps 709 mmHg 54%
    04:00 +25°C° 0 mm 1 mps 710 mmHg 54%
    05:00 +25°C° 0 mm 1 mps 710 mmHg 54%
    06:00 +25°C° 0 mm 1 mps 711 mmHg 54%
    07:00 +27°C° 0 mm 1 mps 711 mmHg 47%
    08:00 +29°C° 0 mm 2 mps 711 mmHg 40%
    09:00 +31°C° 0 mm 2 mps 711 mmHg 34%
    10:00 +33°C° 0 mm 3 mps 712 mmHg 31%
    11:00 +34°C° 0 mm 3 mps 712 mmHg 29%
    12:00 +36°C° 0 mm 4 mps 712 mmHg 27%
    13:00 +35°C° 0 mm 4 mps 712 mmHg 27%
    14:00 +35°C° 0 mm 4 mps 712 mmHg 27%
    15:00 +35°C° 0 mm 5 mps 711 mmHg 28%
    16:00 +33°C° 0.3 mm 4 mps 711 mmHg 35%
    17:00 +30°C° 0.3 mm 2 mps 711 mmHg 42%
    18:00 +28°C° 0.3 mm 1 mps 711 mmHg 49%
    19:00 +28°C° 0 mm 1 mps 711 mmHg 50%
    20:00 +27°C° 0 mm 1 mps 712 mmHg 52%
    21:00 +27°C° 0 mm 2 mps 712 mmHg 54%
    22:00 +27°C° 0 mm 2 mps 712 mmHg 53%
    23:00 +27°C° 0 mm 2 mps 711 mmHg 53%

    Tomorrow, 19 September, Thursday

    Time Temperature Precipitation Wind Pressure Humidity
    00:00 +27°C° 0 mm 3 mps 711 mmHg 53%
    01:00 +27°C° 0 mm 2 mps 711 mmHg 51%
    02:00 +27°C° 0 mm 2 mps 710 mmHg 50%
    03:00 +27°C° 0 mm 2 mps 710 mmHg 49%
    04:00 +27°C° 0 mm 2 mps 710 mmHg 52%
    05:00 +26°C° 0 mm 1 mps 711 mmHg 55%
    06:00 +26°C° 0 mm 1 mps 711 mmHg 57%
    07:00 +28°C° 0 mm 2 mps 711 mmHg 50%
    08:00 +29°C° 0 mm 2 mps 712 mmHg 42%
    09:00 +31°C° 0 mm 3 mps 712 mmHg 35%
    10:00 +33°C° 0 mm 4 mps 712 mmHg 32%
    11:00 +35°C° 0 mm 4 mps 712 mmHg 28%
    12:00 +36°C° 0 mm 5 mps 712 mmHg 25%
    13:00 +35°C° 0 mm 5 mps 712 mmHg 27%
    14:00 +35°C° 0 mm 5 mps 712 mmHg 28%
    15:00 +35°C° 0 mm 5 mps 712 mmHg 29%
    16:00 +33°C° 0.1 mm 4 mps 711 mmHg 37%
    17:00 +30°C° 0.1 mm 3 mps 711 mmHg 45%
    18:00 +28°C° 0.1 mm 2 mps 711 mmHg 53%
    19:00 +27°C° 0 mm 2 mps 711 mmHg 55%
    20:00 +27°C° 0 mm 1 mps 712 mmHg 57%
    21:00 +26°C° 0 mm 1 mps 712 mmHg 59%
    22:00 +26°C° 0 mm 1 mps 712 mmHg 58%
    23:00 +26°C° 0 mm 1 mps 711 mmHg 56%

    Day after tomorrow, 20 September, Friday

    Time Temperature Precipitation Wind Pressure Humidity
    00:00 +26°C° 0 mm 1 mps 711 mmHg 55%
    01:00 +26°C° 0 mm 1 mps 711 mmHg 54%
    02:00 +26°C° 0 mm 1 mps 710 mmHg 53%
    03:00 +25°C° 0 mm 1 mps 710 mmHg 53%
    04:00 +25°C° 0 mm 1 mps 710 mmHg 53%
    05:00 +25°C° 0 mm 1 mps 710 mmHg 53%
    06:00 +25°C° 0 mm 1 mps 710 mmHg 53%
    07:00 +27°C° 0 mm 1 mps 711 mmHg 46%
    08:00 +29°C° 0 mm 2 mps 712 mmHg 39%
    09:00 +33°C° 0 mm 3 mps 712 mmHg 32%
    10:00 +34°C° 0 mm 4 mps 712 mmHg 29%
    11:00 +35°C° 0 mm 5 mps 712 mmHg 26%
    12:00 +36°C° 0 mm 5 mps 712 mmHg 23%
    13:00 +36°C° 0 mm 5 mps 712 mmHg 25%
    14:00 +35°C° 0 mm 5 mps 712 mmHg 27%
    15:00 +35°C° 0 mm 5 mps 712 mmHg 29%
    16:00 +34°C° 0 mm 4 mps 712 mmHg 34%
    17:00 +32°C° 0 mm 2 mps 712 mmHg 39%
    18:00 +30°C° 0 mm 1 mps 712 mmHg 44%
    19:00 +30°C° 0 mm 1 mps 712 mmHg 43%
    20:00 +29°C° 0 mm 1 mps 712 mmHg 42%
    21:00 +29°C° 0 mm 1 mps 712 mmHg 41%
    22:00 +29°C° 0 mm 1 mps 712 mmHg 42%
    23:00 +28°C° 0 mm 2 mps 711 mmHg 42%

    21 September, Saturday

    Time Temperature Precipitation Wind Pressure Humidity
    00:00 +28°C° 0 mm 2 mps 711 mmHg 43%
    01:00 +28°C° 0 mm 2 mps 711 mmHg 42%
    02:00 +27°C° 0 mm 2 mps 710 mmHg 42%
    03:00 +27°C° 0 mm 2 mps 710 mmHg 41%
    04:00 +27°C° 0.2 mm 2 mps 710 mmHg 42%
    05:00 +27°C° 0.2 mm 2 mps 710 mmHg 42%
    06:00 +27°C° 0.2 mm 2 mps 710 mmHg 43%
    07:00 +29°C° 0 mm 3 mps 711 mmHg 38%
    08:00 +32°C° 0 mm 4 mps 712 mmHg 32%
    09:00 +35°C° 0 mm 5 mps 712 mmHg 27%
    10:00 +36°C° 0 mm 6 mps 712 mmHg 25%
    11:00 +36°C° 0 mm 6 mps 712 mmHg 23%
    12:00 +38°C° 0 mm 7 mps 712 mmHg 21%
    13:00 +38°C° 0 mm 6 mps 712 mmHg 22%
    14:00 +36°C° 0 mm 5 mps 711 mmHg 23%
    15:00 +36°C° 0 mm 5 mps 711 mmHg 25%
    16:00 +34°C° 0 mm 4 mps 711 mmHg 29%
    17:00 +33°C° 0 mm 3 mps 710 mmHg 34%
    18:00 +30°C° 0 mm 2 mps 710 mmHg 38%
    19:00 +30°C° 0 mm 2 mps 710 mmHg 38%
    20:00 +29°C° 0 mm 2 mps 710 mmHg 37%
    21:00 +29°C° 0 mm 2 mps 711 mmHg 37%
    22:00 +29°C° 0 mm 2 mps 710 mmHg 37%
    23:00 +28°C° 0 mm 2 mps 710 mmHg 37%

    22 September, Sunday

    Time Temperature Precipitation Wind Pressure Humidity
    00:00 +28°C° 0 mm 3 mps 710 mmHg 37%
    01:00 +28°C° 0 mm 3 mps 710 mmHg 37%
    02:00 +28°C° 0 mm 2 mps 710 mmHg 38%
    03:00 +28°C° 0 mm 2 mps 710 mmHg 38%
    04:00 +28°C° 0 mm 2 mps 710 mmHg 39%
    05:00 +28°C° 0 mm 2 mps 710 mmHg 40%
    06:00 +27°C° 0 mm 1 mps 710 mmHg 42%
    07:00 +29°C° 0 mm 2 mps 711 mmHg 36%
    08:00 +31°C° 0 mm 3 mps 711 mmHg 31%
    09:00 +34°C° 0 mm 3 mps 712 mmHg 26%
    10:00 +35°C° 0 mm 5 mps 712 mmHg 22%
    11:00 +38°C° 0 mm 6 mps 712 mmHg 19%
    12:00 +39°C° 0 mm 7 mps 712 mmHg 15%
    13:00 +39°C° 0 mm 7 mps 711 mmHg 17%
    14:00 +38°C° 0 mm 6 mps 711 mmHg 19%
    15:00 +38°C° 0 mm 6 mps 711 mmHg 20%
    16:00 +35°C° 0 mm 4 mps 711 mmHg 28%
    17:00 +33°C° 0 mm 3 mps 711 mmHg 35%
    18:00 +30°C° 0 mm 2 mps 711 mmHg 42%
    19:00 +29°C° 0 mm 2 mps 711 mmHg 45%
    20:00 +28°C° 0 mm 2 mps 711 mmHg 48%
    21:00 +28°C° 0 mm 2 mps 712 mmHg 51%
    22:00 +27°C° 0 mm 1 mps 712 mmHg 55%
    23:00 +26°C° 0 mm 1 mps 711 mmHg 60%

    23 September, Monday

    Time Temperature Precipitation Wind Pressure Humidity
    00:00 +25°C° 0 mm 1 mps 711 mmHg 64%
    01:00 +25°C° 0 mm 1 mps 711 mmHg 63%
    02:00 +25°C° 0 mm 1 mps 711 mmHg 61%
    03:00 +25°C° 0 mm 1 mps 711 mmHg 59%
    04:00 +26°C° 0 mm 1 mps 711 mmHg 58%
    05:00 +26°C° 0 mm 1 mps 711 mmHg 56%
    06:00 +26°C° 0 mm 1 mps 712 mmHg 54%
    07:00 +27°C° 0 mm 1 mps 712 mmHg 51%
    08:00 +28°C° 0 mm 2 mps 713 mmHg 49%
    09:00 +29°C° 0 mm 2 mps 713 mmHg 46%
    10:00 +30°C° 0 mm 2 mps 713 mmHg 45%
    11:00 +30°C° 0 mm 3 mps 713 mmHg 43%
    12:00 +31°C° 0 mm 3 mps 713 mmHg 42%
    13:00 +31°C° 0 mm 3 mps 713 mmHg 41%
    14:00 +31°C° 0 mm 3 mps 712 mmHg 41%
    15:00 +33°C° 0 mm 3 mps 712 mmHg 41%
    16:00 +30°C° 0 mm 3 mps 712 mmHg 50%
    17:00 +28°C° 0 mm 3 mps 712 mmHg 59%
    18:00 +26°C° 0 mm 2 mps 712 mmHg 68%
    19:00 +25°C° 0 mm 2 mps 712 mmHg 70%
    20:00 +24°C° 0 mm 2 mps 713 mmHg 73%
    21:00 +24°C° 0 mm 1 mps 713 mmHg 75%
    22:00 +23°C° 0 mm 1 mps 713 mmHg 76%
    23:00 +23°C° 0 mm 1 mps 713 mmHg 77%
    Show more